FW9558 Weather Reports


Display with metric or nautical units.
time (UTC)temp
F
wind
direction
speed
MPH
gust
MPH
rain 1hr
in
rain 24hr
in
rain mn
in
humidity
%
barometer
mb
20260906154546 90 0 1.0 7.0 0.00 0.00 0.00 44 1019.0
20260906153052 90 0 0.0 5.0 0.00 0.00 0.00 46 1019.2
20260906151543 89 0 0.0 6.0 0.00 0.00 0.00 46 1019.4
20260906150045 88 244 0.0 7.0 0.00 0.00 0.00 50 1019.4
20260906144543 87 232 1.0 7.0 0.00 0.00 0.00 49 1019.4
20260906143043 88 0 1.0 5.0 0.00 0.00 0.00 49 1019.4
20260906141541 88 0 0.0 6.0 0.00 0.00 0.00 50 1019.4
20260906140049 89 0 1.0 6.0 0.00 0.00 0.00 49 1019.5
20260906134543 89 224 1.0 7.0 0.00 0.00 0.00 48 1019.6
20260906133054 89 0 0.0 6.0 0.00 0.00 0.00 49 1019.5
20260906131547 88 0 0.0 4.0 0.00 0.00 0.00 47 1019.5
20260906130050 87 126 1.0 5.0 0.00 0.00 0.00 49 1019.3
20260906124543 87 0 0.0 0.0 0.00 0.00 0.00 51 1019.4
20260906123046 86 0 0.0 2.0 0.00 0.00 0.00 52 1019.7
20260906121549 86 174 1.0 3.0 0.00 0.00 0.00 52 1019.8
20260906120044 85 0 0.0 0.0 0.00 0.00 0.00 53 1019.8
20260906114548 84 0 0.0 1.0 0.00 0.00 0.00 56 1020.0
20260906113044 84 155 0.0 1.0 0.00 0.00 0.00 57 1020.0
20260906111558 83 0 0.0 2.0 0.00 0.00 0.00 56 1020.2
20260906110042 82 0 1.0 3.0 0.00 0.00 0.00 56 1020.2
20260906104548 81 0 0.0 3.0 0.00 0.00 0.00 58 1020.2
20260906103043 80 87 1.0 4.0 0.00 0.00 0.00 59 1020.3
20260906101542 79 0 0.0 2.0 0.00 0.00 0.00 61 1020.8
20260906100049 78 159 1.0 4.0 0.00 0.00 0.00 63 1021.1
20260906094547 77 26 0.0 2.0 0.00 0.00 0.00 65 1021.2
20260906093051 75 0 0.0 3.0 0.00 0.00 0.00 67 1021.3
20260906091543 73 0 0.0 2.0 0.00 0.00 0.00 70 1021.5
20260906090045 72 0 0.0 3.0 0.00 0.00 0.00 70 1021.3
20260906084554 72 0 0.0 4.0 0.00 0.00 0.00 71 1021.1
20260906083043 71 0 0.0 5.0 0.00 0.00 0.00 72 1021.0
20260906081551 70 0 0.0 2.0 0.00 0.00 0.00 72 1020.7
20260906080054 70 0 0.0 4.0 0.00 0.00 0.00 72 1020.6
20260906074547 70 132 1.0 4.0 0.00 0.00 0.00 73 1020.3
20260906073054 69 317 1.0 9.0 0.00 0.00 0.00 74 1019.8
20260906071544 68 80 4.0 9.0 0.00 0.00 0.00 75 1019.2
20260906070056 67 86 2.0 9.0 0.00 0.00 0.00 74 1019.5
20260906064543 67 82 3.0 9.0 0.00 0.00 0.00 74 1019.8
20260906063044 68 351 1.0 4.0 0.00 0.00 0.00 74 1020.4
20260906061553 68 0 0.0 3.0 0.00 0.00 0.00 73 1021.0
20260906060048 68 0 0.0 5.0 0.00 0.00 0.00 72 1020.8
20260906054545 68 83 1.0 5.0 0.00 0.00 0.00 72 1020.6
20260906053051 68 73 2.0 6.0 0.00 0.00 0.00 71 1020.3
20260906051545 68 96 2.0 8.0 0.00 0.00 0.00 71 1020.1
20260906050105 67 71 2.0 8.0 0.00 0.00 0.00 70 1019.6
20260906044542 67 80 3.0 8.0 0.00 0.00 0.00 69 1019.7
20260906043101 67 78 3.0 8.0 0.00 0.00 0.00 68 1019.9
20260906041602 67 80 3.0 9.0 0.00 0.00 0.00 68 1020.3
20260906040104 67 92 2.0 5.0 0.00 0.00 0.00 67 1021.0
20260906034619 67 71 1.0 4.0 0.00 0.00 0.00 67 1021.5
20260906034548 67 71 1.0 4.0 0.00 0.00 0.00 67 1021.5
20260906033047 67 76 1.0 3.0 0.00 0.00 0.00 66 1021.4
20260906031544 67 75 1.0 5.0 0.00 0.00 0.00 66 1021.5
20260906030050 67 74 2.0 6.0 0.00 0.00 0.00 65 1021.6
20260906024546 67 86 1.0 4.0 0.00 0.00 0.00 65 1021.9
20260906023058 67 76 1.0 4.0 0.00 0.00 0.00 64 1022.1
20260906021544 67 71 1.0 2.0 0.00 0.00 0.00 63 1022.1
20260906020047 67 87 0.0 4.0 0.00 0.00 0.00 63 1022.3
20260906014555 67 0 0.0 1.0 0.00 0.00 0.00 62 1022.6
20260906013042 68 0 0.0 2.0 0.00 0.00 0.00 61 1022.7
20260906011552 68 68 0.0 3.0 0.00 0.00 0.00 61 1022.7
20260906010047 68 0 0.0 1.0 0.00 0.00 0.00 60 1022.8
20260906004544 68 0 0.0 0.0 0.00 0.00 0.00 60 1022.3
20260906003051 68 0 0.0 0.0 0.00 0.00 0.00 60 1022.5
20260906001544 68 0 0.0 0.0 0.00 0.00 0.00 59 1022.8
20260906000052 69 0 0.0 2.0 0.00 0.00 0.00 58 1022.7
20260905234553 69 0 0.0 2.0 0.00 0.00 0.00 57 1022.8
20260905233043 69 0 0.0 0.0 0.00 0.00 0.00 57 1023.1
20260905231543 70 0 0.0 2.0 0.00 0.00 0.00 57 1023.2
20260905230048 70 0 0.0 3.0 0.00 0.00 0.00 55 1023.1
20260905224552 70 67 0.0 4.0 0.00 0.00 0.00 55 1023.0
20260905223042 71 67 0.0 4.0 0.00 0.00 0.00 55 1023.0
20260905221551 71 84 1.0 7.0 0.00 0.00 0.00 55 1023.2
20260905220045 71 0 0.0 3.0 0.00 0.00 0.00 58 1023.2
20260905214546 71 66 0.0 2.0 0.00 0.00 0.00 59 1023.1
20260905213049 72 70 1.0 3.0 0.00 0.00 0.00 59 1023.1
20260905211543 72 80 1.0 3.0 0.00 0.00 0.00 60 1023.0
20260905210041 72 80 0.0 4.0 0.00 0.00 0.00 60 1023.0
20260905204639 72 79 1.0 4.0 0.00 0.00 0.00 61 1023.1
20260905203131 73 74 0.0 3.0 0.00 0.00 0.00 62 1023.1
20260905203042 73 74 0.0 3.0 0.00 0.00 0.00 62 1023.1
20260905201546 73 69 1.0 3.0 0.00 0.00 0.00 62 1023.2
20260905200055 74 26 0.0 3.0 0.00 0.00 0.00 62 1023.2
20260905194545 75 0 0.0 2.0 0.00 0.00 0.00 61 1023.1
20260905193042 75 0 0.0 1.0 0.00 0.00 0.00 60 1023.1
20260905191545 76 0 0.0 2.0 0.00 0.00 0.00 59 1023.1
20260905190050 76 0 0.0 2.0 0.00 0.00 0.00 59 1023.1
20260905184557 77 0 0.0 0.0 0.00 0.00 0.00 58 1022.9
20260905183047 78 0 0.0 2.0 0.00 0.00 0.00 57 1023.0
20260905181551 79 0 1.0 3.0 0.00 0.00 0.00 56 1022.9
20260905180049 80 83 2.0 7.0 0.00 0.00 0.00 54 1022.8
20260905174546 81 55 2.0 6.0 0.00 0.00 0.00 53 1022.9
20260905173044 81 65 1.0 6.0 0.00 0.00 0.00 53 1022.7
20260905171550 82 61 2.0 5.0 0.00 0.00 0.00 52 1022.9
20260905170048 82 92 1.0 8.0 0.00 0.00 0.00 53 1022.7